Regional Weather Roundup
Issued by NWS

Home | Current Version | Previous Version | Text Only | Print | Product List | Glossary On
Versions: 1 2 3 4 5 6 7 8 9 10 11 12 13 14 15 16 17 18 19 20 21 22 23 24 25 26 27 28 29 30 31 32 33 34 35 36 37 38 39 40 41 42 43 44 45 46 47 48 49 50
000
ASUS43 KBIS 221110
RWRND

NORTH DAKOTA REGIONAL WEATHER ROUNDUP
NATIONAL WEATHER SERVICE BISMARCK ND
500 AM CST WED FEB 22 2017

NOTE: "FAIR" INDICATES FEW OR NO CLOUDS BELOW 12,000 FEET WITH NO
SIGNIFICANT WEATHER AND/OR OBSTRUCTIONS TO VISIBILITY.


NDZ001>003-009>011-017-221200-
NORTHWEST NORTH DAKOTA

CITY           SKY/WX    TMP DP  RH WIND       PRES   REMARKS
WILLISTON      LGT SNOW  33  31  92 N10       29.77R FOG
MINOT          LGT SNOW  33  30  88 N13       29.74R FOG
MINOT AFB      FLURRIES  31  29  89 N14       29.73R
$$

NDZ018>021-031>035-040>046-221200-
SOUTHWEST NORTH DAKOTA

CITY           SKY/WX    TMP DP  RH WIND       PRES   REMARKS
BISMARCK       MOCLDY    34  33  96 W6        29.70R
DICKINSON      LGT RAIN  33  32  96 NE10      29.66S FOG
GARRISON         N/A     33  31  92 N7        29.70S
HETTINGER ARPT CLOUDY    39  36  89 NW17      29.66S
$$

NDZ004>008-012>016-024-026-027-054-221200-
NORTHEAST NORTH DAKOTA

CITY           SKY/WX    TMP DP  RH WIND       PRES   REMARKS
GRAND FORKS    FRZ RAIN  33  29  85 NW9       29.69R FOG
GRND FRKS AFB  DRIZZLE   32  32  99 N8        29.70R FOG
DEVILS LAKE    CLOUDY    32  32 100 N7        29.70R FOG
$$

NDZ022-023-025-028>030-036>039-047>053-221200-
SOUTHEAST NORTH DAKOTA

CITY           SKY/WX    TMP DP  RH WIND       PRES   REMARKS
FARGO          FOG       33  33 100 N9        29.66R VSB 1/4
JAMESTOWN      MOCLDY    34  32  92 N6        29.65R
$$





USA.gov is the U.S. government's official web portal to all federal, state and local government web resources and services.